{"data":{"norad_id":36508,"epoch":"2026-05-25T04:48:01.383264Z","epoch_age_seconds":53670,"freshness":"FRESH","line1":"1 36508U 10013A   26145.20001601  .00000201  00000+0  49061-4 0  9991","line2":"2 36508  92.0332 271.7172 0002449  85.0142 275.1345 14.51901002854747","mean_motion":14.51901002,"eccentricity":0.0002449,"inclination_deg":92.0332,"raan_deg":271.7172,"arg_perigee_deg":85.0142,"mean_anomaly_deg":275.1345,"bstar":4.9061e-5,"rev_number":85474,"period_min":99.180315876661,"perigee_km":717.70820645813,"apogee_km":721.18460280972,"semimajor_km":7097.5834046339,"source":"CELESTRAK","updated_at":"2026-05-25T13:38:24.640064Z"}}